Flag Weather past 2 weeks in Ndjamena, Chad

Now
88 °F

Clear.


Feels Like: 87 °F
Forecast: 74 / 96 °F
Wind: 15 mph from East

Location: Ndjamena

Current Time: Oct 31, 2014 at 10:17:18 AM

Latest Report: Oct 31, 2014 at 9:00 AM


Visibility: 5 mi

Pressure: 29.89 "Hg

Humidity: 35%

Dew point: 57 °F

Location of NdjamenaLocation

Historic Weather in Ndjamena — Graph

°F

Ndjamena temperature yesterday

Maximum temperature yesterday: 100 °F (at 1:00 PM)
Minimum temperature yesterday: 68 °F (at 5:00 AM)
Average temperature yesterday: 85 °F

Past Weeks' High & Low Weather Summary

 TemperatureHumidityPressure
High102 °F (Oct 25, 2:00 PM)94% (Oct 18, 4:00 AM)29.92 "Hg (Oct 18, 4:00 AM)
Low64 °F (Oct 19, 6:00 AM)7% (Oct 29, 6:00 PM)29.71 "Hg (Oct 29, 3:00 PM)
Average85 °F50%29.83 "Hg
* Reported Oct 16 9:00 AM — Oct 31 9:00 AM, Ndjamena, Weather by CustomWeather, © 2014

Note: Actual official high and low records may vary slightly from our data, if they occured in-between our weather recording intervals... More about our weather records

Advertising

Ndjamena weather history for previous 24 hours

 ConditionsComfort  
Time TempWeatherWind HumidityBarometerVisibility
9:00 AM
Oct 31
88 °FClear.15 mph35%29.89 "Hg5 mi
8:00 AM84 °FHaze.10 mph37%29.89 "Hg2 mi
7:00 AM77 °FSunny.5 mph51%29.89 "Hg10 mi
6:00 AM75 °FSunny.7 mph47%29.86 "Hg10 mi
5:00 AM75 °FPassing clouds.7 mph47%29.86 "HgN/A
4:00 AM73 °FPassing clouds.8 mph47%29.86 "HgN/A
3:00 AM72 °FClear.7 mph50%29.83 "Hg10 mi
2:00 AM73 °FClear.6 mph47%29.83 "Hg10 mi
1:00 AM75 °FClear.7 mph47%29.83 "Hg10 mi
12:00 AM77 °FClear.7 mph44%29.83 "Hg10 mi
11:00 PM
Oct 30
82 °FClear.8 mph40%29.83 "Hg10 mi
10:00 PM84 °FClear.7 mph37%29.83 "Hg10 mi
9:00 PM84 °FClear.5 mph43%29.83 "Hg10 mi
8:00 PM86 °FClear.8 mph38%29.80 "Hg5 mi
7:00 PM86 °FClear.3 mph43%29.77 "Hg5 mi
6:00 PM88 °FClear.3 mph40%29.77 "Hg5 mi
5:00 PM95 °FSunny.3 mph32%29.74 "Hg10 mi
4:00 PM99 °FSunny.6 mph29%29.74 "Hg10 mi
3:00 PM99 °FSunny.3 mph33%29.77 "Hg10 mi
2:00 PM99 °FPassing clouds.8 mph35%29.77 "HgN/A
1:00 PM100 °FPassing clouds.7 mph25%29.80 "HgN/A
12:00 PM99 °FPassing clouds.6 mph18%29.83 "HgN/A
11:00 AM95 °FPassing clouds.5 mph18%29.86 "HgN/A
10:00 AM93 °FPassing clouds.5 mph17%29.89 "HgN/A
Weather by CustomWeather, © 2014

See weather overviewHow to use our weather pages